SCP
0 0 0 0 0 0 0 0 0 0 0 0 0 0 0 0 0 0 0 0 0 0 0 0 0 0 0 0 0 0 0 0 1 0 0 0 0 0 0 0 0 0 0 0
0 0 0 0 0 0 0 0 0 0 0 0 0 0 0 0 0 0 0 0 0 0 0 0 0 0 0 0 0 0 0 0 0 0 0 0 0 0 0 0 0 0 0 0
0 0 0 0 0 0 0 0 0 0 0 0 0 0 0 0 0 0 0 0 0 0 0 0 0 0 0 0 0 0 0 0 0 0 0 0 0 0 0 0 0 0 0 0
0 0 0 0 0 0 0 0 0 0 0 0 0 0 0 0 0 0 0 0 0 0 0 0 0 0 0 0 0 0 0 0 0 0 0 0 0 0 0 0 0 0 0 0
0 0 0 0 0 0 0 0 0 0 0 0 0 0 0 0 0 0 0 0 0 0 0 0 0 0 0 0 0 0 0 0 0 0 0 0 0 0 0 0 0 0 0 0
0 0 0 0 0 0 0 0 0 0 0 0 0 0 0 0 0 0 0 0 0 0 0 0 0 0 0 0 0 0 0 0 0 0 0 0 0 0 0 0 0 0 0 0
0 0 0 0 0 0 0 0 0 0 0 0 0 0 0 0 0 0 0 0 0 0 0 0 0 0 0 0 0 0 0 0 0 0 0 0 0 0 0 0 0 0 0 0
0 0 0 0 0 0 0 0 0 0 0 0 0 0 0 0 0 0 0 0 0 0 0 0 0 0 0 0 0 0 0 0 0 0 0 0 0 0 0 0 0 0 0 0
0 0 0 0 0 0 0 0 0 0 0 0 0 0 0 0 0 0 0 0 0 0 0 0 0 0 0 0 0 0 0 0 0 0 0 0 0 0 0 0 0 0 -0 0
0 0 0 0 0 0 0 0 0 0 0 0 0 0 0 0 0 0 0 0 0 0 0 0 0 0 0 0 0 0 0 0 0 0 0 0 0 0 0 0 0 0 0 0
0 0 0 0 0 0 0 0 0 0 0 0 0 0 0 0 0 0 0 0 0 0 0 0 0 0 0 0 0 0 0 0 0 0 0 0 0 0 0 0 0 0 0 0
0 0 0 0 0 0 0 0 0 0 0 0 0 0 0 0 0 0 0 0 0 0 0 0 0 0 0 0 0 0 0 0 0 0 0 0 0 0 0 0 -0 0 0 0
0 0 0 0 0 0 0 0 0 0 0 0 0 0 0 0 0 0 0 0 0 0 0 0 0 0 0 0 0 0 0 0 0 0 0 0 0 0 0 0 0 0 0 0
0 0 0 0 0 0 0 0 0 0 0 0 0 0 0 0 0 0 0 0 0 0 0 0 0 0 0 0 0 0 0 0 0 0 0 0 0 0 0 0 0 0 0 0
0 0 0 0 0 0 0 0 0 0 0 0 0 0 0 0 0 0 0 0 0 0 0 0 0 0 0 0 0 0 0 0 0 0 0 -0 0 0 0 0 0 0 0 0
0 0 0 0 0 0 0 0 0 0 0 0 0 0 0 0 0 0 0 0 0 0 0 0 0 0 0 0 0 0 0 0 -0 0 0 0 0 0 0 0 0 0 0 0
0 0 0 0 0 0 0 0 0 0 0 0 0 0 0 0 0 0 0 0 0 0 0 0 0 0 0 0 0 0 0 0 -0 0 0 0 0 -0 0 0 0 0 0 0
0 0 0 0 0 0 0 0 0 0 0 0 0 0 0 0 0 0 0 0 0 0 0 0 0 0 0 0 0 0 0 -0 -0 0 0 0 0 0 0 0 -0 -0 0 0
0 0 0 0 0 0 0 0 0 0 0 0 0 0 0 0 0 0 0 0 0 0 0 0 0 0 0 0 0 0 0 0 0 0 0 0 0 0 0 0 0 0 0 0
0 0 0 0 0 0 0 0 0 0 0 0 0 0 0 0 0 0 0 0 0 0 0 0 0 0 0 0 0 0 0 0 0 0 0 0 0 0 0 0 -0 0 0 0
0 0 -0 -0 0 0 -0 -0 -0 0 0 0 0 0 0 0 0 0 0 0 0 0 0 0 0 0 0 0 0 0 0 0 0 0 0 0 0 0 0 -0 -0 0 0 0
0 0 0 0 0 0 -0 -0 -0 -0 0 0 0 0 0 0 0 0 -0 0 0 0 0 0 0 0 0 0 0 0 0 0 0 0 0 0 0 0 0 0 0 0 0 0
0 0 0 0 0 -0 -0 -0 -0 -0 -0 -0 -0 -0 0 0 0 0 0 0 0 -0 -0 -0 -0 0 0 0 0 0 0 0 0 0 0 0 0 0 0 0 0 0 0 0
0 0 0 0 0 -0 -0 -0 -0 -0 -0 -0 0 0 0 0 0 0 0 0 -0 -0 0 0 0 0 0 -0 -0 -0 -0 0 -0 0 0 0 0 0 0 0 0 0 0 0
0 0 0 0 0 0 -0 -0 -0 -0 -0 -0 -0 -0 0 0 0 0 0 0 0 0 0 0 0 0 -0 -0 -0 -0 -0 -0 -0 0 0 0 0 0 0 0 0 0 0 0
0 0 0 0 0 0 0 0 0 0 0 0 -0 0 0 0 0 0 0 0 0 0 0 -0 -0 -0 -0 -0 -0 -0 -0 -0 -0 -0 -0 -0 0 0 0 0 0 0 0 0
0 0 0 0 0 0 0 0 0 0 0 0 0 0 0 0 0 0 0 0 0 0 0 0 0 0 0 -0 -0 -0 -0 -0 0 0 0 0 0 0 0 0 0 0 0 0
Wind_Speed_500mb
6 8 6 7 6 7 8 8 8 7 11 10 18 20 41 50 42 43 44 41 34 26 22 22 21 22 25 33 40 47 55 56 67 64 57 61 71 74 68 59 56 56 60 64
7 7 12 8 7 7 2 6 8 7 12 12 17 35 25 41 46 44 40 33 30 27 21 16 19 29 38 38 43 51 59 68 74 62 59 68 67 63 60 58 57 59 62 63
7 3 10 6 10 7 3 2 8 9 15 9 9 27 47 45 38 34 35 33 24 16 15 17 29 39 41 42 49 58 68 78 75 64 66 64 59 54 56 62 63 62 63 64
8 2 4 11 3 10 16 4 6 8 6 12 13 13 15 16 20 17 14 14 18 20 24 29 37 43 45 47 53 63 74 73 67 59 55 54 53 55 56 55 58 59 60 60
9 7 6 6 9 13 10 2 4 12 13 30 34 34 19 17 7 10 18 22 22 29 37 40 45 47 49 49 57 67 68 70 59 48 45 45 50 49 47 50 54 55 55 61
5 8 14 16 10 15 14 2 12 19 19 24 14 6 9 10 11 14 17 26 33 36 40 45 48 53 53 52 61 72 72 67 52 41 37 43 43 42 44 49 51 47 52 49
6 7 12 14 16 21 11 13 33 28 28 29 10 11 8 10 15 22 26 27 30 35 47 52 51 49 51 58 65 70 67 53 41 34 38 38 41 41 44 48 48 46 47 44
6 5 13 5 3 12 9 33 39 27 23 17 15 11 9 14 18 22 28 33 34 47 51 55 48 48 56 62 64 61 51 42 35 33 36 37 41 42 44 48 44 40 39 37
11 9 8 12 17 21 22 35 26 24 15 9 5 11 15 20 27 31 35 45 56 63 63 58 48 52 55 57 58 48 37 38 36 40 37 36 40 40 41 40 33 35 35 36
7 10 7 18 25 28 26 29 21 11 7 9 11 13 18 17 21 30 39 47 55 66 70 60 42 40 49 55 48 43 40 44 47 46 43 40 41 34 41 35 34 33 35 30
5 3 8 22 18 18 20 14 7 5 4 10 12 11 11 21 33 43 49 51 49 51 48 40 37 39 49 48 43 42 41 41 41 39 41 42 38 36 38 24 41 39 33 29
8 7 10 6 15 12 11 4 3 7 7 7 10 15 23 25 25 32 38 38 43 40 41 37 41 45 47 47 42 41 37 31 36 36 34 30 35 32 26 30 33 33 32 29
7 17 19 24 18 14 10 7 2 3 9 12 14 14 15 19 25 31 36 35 37 41 44 44 41 45 44 40 34 36 32 31 33 34 29 33 32 24 32 23 32 29 28 26
27 33 20 22 11 14 10 8 7 6 10 9 10 15 17 22 25 31 34 37 38 39 36 36 36 36 37 31 29 25 19 28 36 40 33 29 16 32 44 32 39 25 19 23
36 23 9 19 17 11 8 4 9 9 9 11 12 13 16 22 27 30 31 29 27 30 31 31 32 32 35 35 33 30 27 29 34 50 31 25 29 35 33 23 40 29 26 17
25 17 20 19 17 15 14 15 9 10 7 10 13 15 19 24 26 24 23 24 31 36 37 37 34 33 35 38 29 26 22 31 44 38 32 34 24 25 15 39 37 25 31 13
31 28 27 35 25 17 12 13 9 5 8 14 17 21 24 24 23 24 24 28 30 30 34 37 41 39 32 33 25 23 22 33 38 36 32 8 22 14 33 28 20 24 7 3
24 27 24 24 24 20 17 11 7 5 11 16 19 20 24 31 36 34 31 29 29 29 29 31 40 41 33 29 27 29 31 36 36 28 18 13 14 6 17 34 17 9 8 6
24 27 28 22 16 12 9 8 9 12 15 18 19 23 27 30 34 35 36 38 36 32 35 37 39 37 27 18 20 29 21 25 23 17 10 9 9 4 3 16 13 7 14 6
27 23 22 23 19 15 15 14 13 14 19 21 22 27 32 35 33 33 38 46 51 50 44 40 37 31 25 18 20 20 28 41 37 24 18 14 12 12 18 19 16 10 12 9
30 28 30 28 27 26 25 24 19 21 22 23 28 34 38 43 43 38 40 46 48 49 47 49 48 37 32 23 20 22 23 22 26 38 43 30 29 30 14 3 31 15 8 6
37 36 33 32 30 33 30 28 28 28 31 28 23 24 26 35 40 39 34 36 44 48 41 46 48 49 41 31 25 16 9 9 10 16 23 32 36 30 25 18 23 20 17 16
33 34 31 30 27 29 28 25 25 21 22 23 26 27 28 30 29 35 37 35 35 34 36 36 48 51 52 54 50 45 40 41 33 27 20 16 16 20 25 26 20 18 23 21
32 31 26 27 24 24 21 16 13 10 9 11 13 14 17 20 21 19 25 27 35 36 33 30 34 38 45 48 51 49 47 46 45 43 38 28 24 20 14 11 13 15 15 13
28 24 17 16 11 13 11 5 6 3 4 10 11 5 11 17 19 14 13 27 36 35 28 32 36 39 41 41 41 43 45 45 43 39 35 30 27 25 22 18 18 16 14 12
27 16 13 9 5 9 10 7 6 7 2 11 20 5 9 13 20 18 14 23 29 25 29 36 41 46 50 50 51 53 53 49 46 43 39 35 31 28 25 23 23 24 25 24
21 19 21 12 14 14 6 4 8 3 6 7 21 8 6 8 15 19 17 25 31 20 25 29 34 41 47 53 57 62 60 53 48 45 40 37 34 32 31 30 31 31 32 34
Wind_Direction_500mb
103 111 94 95 111 138 143 178 153 250 207 229 214 198 181 170 167 167 167 170 177 183 200 221 242 268 298 313 315 317 313 302 299 299 289 286 290 293 293 289 289 289 287 281
52 47 105 117 136 122 75 158 257 261 270 224 258 189 161 163 160 165 174 182 189 196 211 240 277 301 306 305 311 313 310 310 310 302 286 289 290 293 290 289 288 289 289 286
190 319 114 2 169 130 155 326 233 207 240 158 120 148 165 169 176 183 186 182 193 220 252 288 301 293 293 306 311 310 312 313 309 295 289 291 293 292 293 294 293 290 287 286
159 97 150 237 254 148 121 53 125 73 45 56 93 109 153 148 145 157 187 229 257 271 277 279 282 287 292 298 306 313 315 313 308 296 287 290 290 295 296 298 297 296 290 289
138 165 275 324 193 160 169 226 295 113 99 114 114 112 119 137 181 241 252 258 258 267 268 264 273 287 286 291 311 315 317 316 308 296 289 289 293 297 299 299 299 303 296 290
136 153 207 226 224 170 113 259 206 144 143 146 114 105 250 223 224 235 241 246 267 277 260 267 285 290 283 295 308 312 313 312 302 290 288 295 296 297 298 297 302 306 307 305
150 202 284 248 223 155 128 234 175 168 160 156 155 177 168 201 241 268 276 278 275 274 283 291 288 277 283 300 307 309 311 305 300 293 293 295 298 293 294 297 299 309 313 320
95 144 264 3 105 171 190 137 150 138 134 134 142 165 198 233 262 276 283 288 292 299 300 306 293 282 294 301 309 310 309 302 296 295 293 296 294 296 290 299 298 306 307 311
159 212 287 53 105 113 137 132 134 131 135 155 213 270 283 286 292 298 309 310 309 306 299 295 297 289 295 308 311 310 305 298 297 298 296 296 295 298 290 299 296 307 308 315
97 340 26 85 99 112 122 126 131 150 197 244 268 272 270 283 313 316 315 316 314 312 296 294 297 300 307 312 308 305 299 296 298 297 292 286 291 291 285 295 303 308 309 309
43 243 110 78 97 121 131 135 161 189 279 298 284 275 315 331 325 322 322 316 320 320 315 317 310 307 312 312 307 308 299 303 307 299 296 292 293 286 288 271 307 297 300 308
206 216 126 108 94 114 150 136 253 277 297 299 311 312 314 320 331 333 334 335 330 326 321 319 311 309 312 307 298 303 303 313 324 311 307 309 301 281 264 272 305 284 286 300
180 175 140 137 128 115 96 87 104 261 273 284 298 308 314 328 331 332 335 323 325 327 328 320 316 318 313 313 302 302 300 312 319 329 325 323 304 279 331 278 326 315 290 296
160 149 151 177 165 129 120 107 93 20 347 324 329 343 335 327 322 327 325 325 324 332 341 339 331 327 324 326 319 310 307 317 314 319 320 307 281 305 321 309 320 335 292 293
188 200 209 163 134 123 128 78 134 79 19 12 8 354 334 325 327 331 332 330 333 338 342 341 336 327 325 318 316 311 301 315 320 316 316 305 291 314 324 320 321 309 316 270
159 159 138 134 138 129 126 119 112 86 44 9 351 348 342 332 324 332 347 348 342 343 339 337 327 328 338 342 323 320 300 327 323 319 315 309 296 298 322 323 327 323 327 277
155 157 149 139 141 137 122 120 108 68 15 0 1 357 342 338 341 346 354 352 341 332 331 328 332 338 334 336 328 326 310 324 329 335 333 336 293 294 276 319 291 317 341 123
161 149 152 150 141 139 136 119 102 47 15 13 16 22 22 20 22 17 6 353 335 332 338 336 334 336 328 335 344 329 323 319 325 338 351 241 266 348 296 305 300 287 338 292
150 145 132 126 125 128 103 63 45 57 56 39 31 31 31 29 28 26 22 19 10 351 341 342 344 334 335 353 30 29 15 351 355 358 49 69 81 129 252 311 341 286 317 301
141 136 132 124 111 91 75 61 60 61 56 49 57 54 50 45 38 32 31 35 30 22 16 3 345 342 343 336 342 7 25 33 35 29 38 61 61 51 43 25 3 321 321 242
136 139 137 135 123 100 81 72 67 70 70 70 60 56 54 47 42 40 40 43 35 28 25 25 17 8 355 322 322 324 332 348 8 37 36 38 58 65 38 251 306 22 9 220
153 150 141 125 113 100 93 80 71 81 75 62 56 50 49 43 42 40 37 37 27 24 27 27 25 23 30 27 23 10 45 49 341 359 1 40 32 44 52 47 356 46 71 59
156 151 143 133 120 112 105 91 83 84 78 71 65 56 44 31 26 27 30 30 15 8 18 20 19 20 24 29 33 34 33 39 47 46 31 20 48 44 50 57 60 45 44 63
157 152 146 137 124 113 97 109 95 92 68 54 43 35 29 25 23 38 31 17 18 19 16 10 10 13 8 14 13 16 18 22 23 24 26 27 22 30 36 43 44 44 51 55
161 155 157 144 153 164 132 91 111 103 83 43 17 20 19 15 21 30 16 5 7 4 12 19 6 4 11 16 16 17 18 16 13 11 10 6 4 0 2 345 338 333 327 329
169 153 148 159 197 220 201 181 206 208 147 26 15 345 337 352 6 30 29 13 11 12 26 29 31 31 33 33 30 26 20 16 13 11 11 9 5 359 347 330 318 315 317 319
153 168 183 182 154 161 165 262 218 166 191 0 6 15 20 357 10 25 36 19 12 20 30 25 23 21 21 20 16 9 3 1 360 0 360 355 348 344 339 333 324 317 312 307
Wind_Speed_850mb
6 8 6 7 6 7 8 8 8 7 11 10 18 20 41 50 42 43 44 41 34 26 22 22 21 22 25 33 40 47 55 56 67 64 57 61 71 74 68 59 56 56 60 64
7 7 12 8 7 7 2 6 8 7 12 12 17 35 25 41 46 44 40 33 30 27 21 16 19 29 38 38 43 51 59 68 74 62 59 68 67 63 60 58 57 59 62 63
7 3 10 6 10 7 3 2 8 9 15 9 9 27 47 45 38 34 35 33 24 16 15 17 29 39 41 42 49 58 68 78 75 64 66 64 59 54 56 62 63 62 63 64
8 2 4 11 3 10 16 4 6 8 6 12 13 13 15 16 20 17 14 14 18 20 24 29 37 43 45 47 53 63 74 73 67 59 55 54 53 55 56 55 58 59 60 60
9 7 6 6 9 13 10 2 4 12 13 30 34 34 19 17 7 10 18 22 22 29 37 40 45 47 49 49 57 67 68 70 59 48 45 45 50 49 47 50 54 55 55 61
5 8 14 16 10 15 14 2 12 19 19 24 14 6 9 10 11 14 17 26 33 36 40 45 48 53 53 52 61 72 72 67 52 41 37 43 43 42 44 49 51 47 52 49
6 7 12 14 16 21 11 13 33 28 28 29 10 11 8 10 15 22 26 27 30 35 47 52 51 49 51 58 65 70 67 53 41 34 38 38 41 41 44 48 48 46 47 44
6 5 13 5 3 12 9 33 39 27 23 17 15 11 9 14 18 22 28 33 34 47 51 55 48 48 56 62 64 61 51 42 35 33 36 37 41 42 44 48 44 40 39 37
11 9 8 12 17 21 22 35 26 24 15 9 5 11 15 20 27 31 35 45 56 63 63 58 48 52 55 57 58 48 37 38 36 40 37 36 40 40 41 40 33 35 35 36
7 10 7 18 25 28 26 29 21 11 7 9 11 13 18 17 21 30 39 47 55 66 70 60 42 40 49 55 48 43 40 44 47 46 43 40 41 34 41 35 34 33 35 30
5 3 8 22 18 18 20 14 7 5 4 10 12 11 11 21 33 43 49 51 49 51 48 40 37 39 49 48 43 42 41 41 41 39 41 42 38 36 38 24 41 39 33 29
8 7 10 6 15 12 11 4 3 7 7 7 10 15 23 25 25 32 38 38 43 40 41 37 41 45 47 47 42 41 37 31 36 36 34 30 35 32 26 30 33 33 32 29
7 17 19 24 18 14 10 7 2 3 9 12 14 14 15 19 25 31 36 35 37 41 44 44 41 45 44 40 34 36 32 31 33 34 29 33 32 24 32 23 32 29 28 26
27 33 20 22 11 14 10 8 7 6 10 9 10 15 17 22 25 31 34 37 38 39 36 36 36 36 37 31 29 25 19 28 36 40 33 29 16 32 44 32 39 25 19 23
36 23 9 19 17 11 8 4 9 9 9 11 12 13 16 22 27 30 31 29 27 30 31 31 32 32 35 35 33 30 27 29 34 50 31 25 29 35 33 23 40 29 26 17
25 17 20 19 17 15 14 15 9 10 7 10 13 15 19 24 26 24 23 24 31 36 37 37 34 33 35 38 29 26 22 31 44 38 32 34 24 25 15 39 37 25 31 13
31 28 27 35 25 17 12 13 9 5 8 14 17 21 24 24 23 24 24 28 30 30 34 37 41 39 32 33 25 23 22 33 38 36 32 8 22 14 33 28 20 24 7 3
24 27 24 24 24 20 17 11 7 5 11 16 19 20 24 31 36 34 31 29 29 29 29 31 40 41 33 29 27 29 31 36 36 28 18 13 14 6 17 34 17 9 8 6
24 27 28 22 16 12 9 8 9 12 15 18 19 23 27 30 34 35 36 38 36 32 35 37 39 37 27 18 20 29 21 25 23 17 10 9 9 4 3 16 13 7 14 6
27 23 22 23 19 15 15 14 13 14 19 21 22 27 32 35 33 33 38 46 51 50 44 40 37 31 25 18 20 20 28 41 37 24 18 14 12 12 18 19 16 10 12 9
30 28 30 28 27 26 25 24 19 21 22 23 28 34 38 43 43 38 40 46 48 49 47 49 48 37 32 23 20 22 23 22 26 38 43 30 29 30 14 3 31 15 8 6
37 36 33 32 30 33 30 28 28 28 31 28 23 24 26 35 40 39 34 36 44 48 41 46 48 49 41 31 25 16 9 9 10 16 23 32 36 30 25 18 23 20 17 16
33 34 31 30 27 29 28 25 25 21 22 23 26 27 28 30 29 35 37 35 35 34 36 36 48 51 52 54 50 45 40 41 33 27 20 16 16 20 25 26 20 18 23 21
32 31 26 27 24 24 21 16 13 10 9 11 13 14 17 20 21 19 25 27 35 36 33 30 34 38 45 48 51 49 47 46 45 43 38 28 24 20 14 11 13 15 15 13
28 24 17 16 11 13 11 5 6 3 4 10 11 5 11 17 19 14 13 27 36 35 28 32 36 39 41 41 41 43 45 45 43 39 35 30 27 25 22 18 18 16 14 12
27 16 13 9 5 9 10 7 6 7 2 11 20 5 9 13 20 18 14 23 29 25 29 36 41 46 50 50 51 53 53 49 46 43 39 35 31 28 25 23 23 24 25 24
21 19 21 12 14 14 6 4 8 3 6 7 21 8 6 8 15 19 17 25 31 20 25 29 34 41 47 53 57 62 60 53 48 45 40 37 34 32 31 30 31 31 32 34
Wind_Direction_850mb
103 111 94 95 111 138 143 178 153 250 207 229 214 198 181 170 167 167 167 170 177 183 200 221 242 268 298 313 315 317 313 302 299 299 289 286 290 293 293 289 289 289 287 281
52 47 105 117 136 122 75 158 257 261 270 224 258 189 161 163 160 165 174 182 189 196 211 240 277 301 306 305 311 313 310 310 310 302 286 289 290 293 290 289 288 289 289 286
190 319 114 2 169 130 155 326 233 207 240 158 120 148 165 169 176 183 186 182 193 220 252 288 301 293 293 306 311 310 312 313 309 295 289 291 293 292 293 294 293 290 287 286
159 97 150 237 254 148 121 53 125 73 45 56 93 109 153 148 145 157 187 229 257 271 277 279 282 287 292 298 306 313 315 313 308 296 287 290 290 295 296 298 297 296 290 289
138 165 275 324 193 160 169 226 295 113 99 114 114 112 119 137 181 241 252 258 258 267 268 264 273 287 286 291 311 315 317 316 308 296 289 289 293 297 299 299 299 303 296 290
136 153 207 226 224 170 113 259 206 144 143 146 114 105 250 223 224 235 241 246 267 277 260 267 285 290 283 295 308 312 313 312 302 290 288 295 296 297 298 297 302 306 307 305
150 202 284 248 223 155 128 234 175 168 160 156 155 177 168 201 241 268 276 278 275 274 283 291 288 277 283 300 307 309 311 305 300 293 293 295 298 293 294 297 299 309 313 320
95 144 264 3 105 171 190 137 150 138 134 134 142 165 198 233 262 276 283 288 292 299 300 306 293 282 294 301 309 310 309 302 296 295 293 296 294 296 290 299 298 306 307 311
159 212 287 53 105 113 137 132 134 131 135 155 213 270 283 286 292 298 309 310 309 306 299 295 297 289 295 308 311 310 305 298 297 298 296 296 295 298 290 299 296 307 308 315
97 340 26 85 99 112 122 126 131 150 197 244 268 272 270 283 313 316 315 316 314 312 296 294 297 300 307 312 308 305 299 296 298 297 292 286 291 291 285 295 303 308 309 309
43 243 110 78 97 121 131 135 161 189 279 298 284 275 315 331 325 322 322 316 320 320 315 317 310 307 312 312 307 308 299 303 307 299 296 292 293 286 288 271 307 297 300 308
206 216 126 108 94 114 150 136 253 277 297 299 311 312 314 320 331 333 334 335 330 326 321 319 311 309 312 307 298 303 303 313 324 311 307 309 301 281 264 272 305 284 286 300
180 175 140 137 128 115 96 87 104 261 273 284 298 308 314 328 331 332 335 323 325 327 328 320 316 318 313 313 302 302 300 312 319 329 325 323 304 279 331 278 326 315 290 296
160 149 151 177 165 129 120 107 93 20 347 324 329 343 335 327 322 327 325 325 324 332 341 339 331 327 324 326 319 310 307 317 314 319 320 307 281 305 321 309 320 335 292 293
188 200 209 163 134 123 128 78 134 79 19 12 8 354 334 325 327 331 332 330 333 338 342 341 336 327 325 318 316 311 301 315 320 316 316 305 291 314 324 320 321 309 316 270
159 159 138 134 138 129 126 119 112 86 44 9 351 348 342 332 324 332 347 348 342 343 339 337 327 328 338 342 323 320 300 327 323 319 315 309 296 298 322 323 327 323 327 277
155 157 149 139 141 137 122 120 108 68 15 0 1 357 342 338 341 346 354 352 341 332 331 328 332 338 334 336 328 326 310 324 329 335 333 336 293 294 276 319 291 317 341 123
161 149 152 150 141 139 136 119 102 47 15 13 16 22 22 20 22 17 6 353 335 332 338 336 334 336 328 335 344 329 323 319 325 338 351 241 266 348 296 305 300 287 338 292
150 145 132 126 125 128 103 63 45 57 56 39 31 31 31 29 28 26 22 19 10 351 341 342 344 334 335 353 30 29 15 351 355 358 49 69 81 129 252 311 341 286 317 301
141 136 132 124 111 91 75 61 60 61 56 49 57 54 50 45 38 32 31 35 30 22 16 3 345 342 343 336 342 7 25 33 35 29 38 61 61 51 43 25 3 321 321 242
136 139 137 135 123 100 81 72 67 70 70 70 60 56 54 47 42 40 40 43 35 28 25 25 17 8 355 322 322 324 332 348 8 37 36 38 58 65 38 251 306 22 9 220
153 150 141 125 113 100 93 80 71 81 75 62 56 50 49 43 42 40 37 37 27 24 27 27 25 23 30 27 23 10 45 49 341 359 1 40 32 44 52 47 356 46 71 59
156 151 143 133 120 112 105 91 83 84 78 71 65 56 44 31 26 27 30 30 15 8 18 20 19 20 24 29 33 34 33 39 47 46 31 20 48 44 50 57 60 45 44 63
157 152 146 137 124 113 97 109 95 92 68 54 43 35 29 25 23 38 31 17 18 19 16 10 10 13 8 14 13 16 18 22 23 24 26 27 22 30 36 43 44 44 51 55
161 155 157 144 153 164 132 91 111 103 83 43 17 20 19 15 21 30 16 5 7 4 12 19 6 4 11 16 16 17 18 16 13 11 10 6 4 0 2 345 338 333 327 329
169 153 148 159 197 220 201 181 206 208 147 26 15 345 337 352 6 30 29 13 11 12 26 29 31 31 33 33 30 26 20 16 13 11 11 9 5 359 347 330 318 315 317 319
153 168 183 182 154 161 165 262 218 166 191 0 6 15 20 357 10 25 36 19 12 20 30 25 23 21 21 20 16 9 3 1 360 0 360 355 348 344 339 333 324 317 312 307